SCP
0 0 0 -0 0 0 0 0 0 0 -0 0 0 0 -0 -0 -0 0 -0 -0 0 0 0 0 0 0 0 0 2 2 2 2 3 3 2 2 2 1 1 1 1 0 0 0
-0 0 0 0 0 0 0 0 0 0 0 0 0 -0 -0 -0 -0 -0 -0 -0 0 0 0 0 0 0 0 1 3 3 3 3 3 2 2 2 1 1 1 0 0 0 0 0
0 0 0 0 0 0 0 0 0 0 0 0 -0 -0 -0 -0 -0 -0 -0 0 0 0 0 0 -0 -0 1 1 2 3 3 2 2 2 1 1 1 0 0 0 0 0 0 0
0 0 0 0 0 0 0 0 0 0 0 0 0 -0 -0 -0 -0 -0 0 0 0 0 0 0 0 0 0 0 1 2 2 1 1 1 1 0 0 0 0 0 0 0 0 0
0 0 0 0 0 0 0 0 0 0 0 0 -0 -0 -0 -0 -0 0 0 -0 -0 -0 0 -0 0 0 0 0 0 0 1 1 1 0 0 0 0 0 0 0 0 0 0 0
0 0 0 0 0 0 0 0 0 0 -0 -0 -0 -0 -0 0 -0 -0 -0 0 0 0 0 -0 -0 -0 0 0 0 0 0 0 0 0 0 0 0 0 0 0 0 0 0 0
0 0 0 0 0 0 0 0 0 -0 -0 0 0 -0 -0 -0 -0 -0 -0 -0 0 -0 -0 -0 -0 -0 0 0 0 0 0 0 0 0 0 0 0 0 0 0 0 0 0 0
0 0 0 0 0 0 0 -0 0 -0 0 -0 -0 -0 -0 -0 -0 -0 -0 -0 0 -0 0 -0 -0 0 0 0 0 0 0 0 0 0 0 0 0 0 0 0 0 0 0 0
0 0 0 0 0 0 0 0 -0 -0 -0 -0 -0 -0 -0 -0 -0 -0 -0 0 0 -0 0 -0 0 0 -0 -0 0 0 0 0 0 0 0 0 0 0 0 0 0 0 0 0
0 0 0 0 0 0 0 -0 0 -0 0 -0 -0 -0 -0 -0 -0 -0 -0 -0 -0 0 -0 0 0 0 0 0 0 0 0 0 0 0 0 0 0 0 0 0 0 0 0 0
0 0 0 0 0 0 -0 0 0 -0 0 -0 0 -0 -0 -0 -0 -0 -0 -0 0 0 0 0 0 0 0 0 0 0 0 0 0 0 0 0 0 0 0 0 0 0 0 0
0 0 0 0 0 0 -0 0 0 0 -0 0 0 -0 -0 -0 0 -0 -0 0 0 0 0 0 0 0 0 0 0 0 0 0 0 0 0 0 0 0 0 0 0 0 0 0
0 0 0 0 0 0 0 0 0 -0 0 0 0 -0 -0 -0 -0 -0 0 0 0 0 0 0 0 0 0 0 0 0 0 0 0 0 0 0 0 0 0 0 -0 0 0 0
0 0 0 0 -0 -0 0 -0 -0 0 0 0 0 0 -0 -0 -0 -0 0 0 0 0 0 0 0 -0 -0 0 0 0 0 0 0 0 0 0 0 0 0 0 0 0 0 0
0 0 0 0 -0 -0 -0 0 0 0 0 -0 0 0 0 -0 -0 0 0 0 0 0 0 0 0 -0 0 0 0 0 0 0 0 0 0 0 0 0 0 0 0 0 0 0
0 -0 -0 0 -0 -0 0 0 0 0 0 0 0 0 -0 -0 0 0 0 0 0 0 0 0 0 0 0 0 0 0 0 -0 0 0 0 0 0 0 0 0 0 0 0 0
0 -0 0 0 -0 -0 0 0 0 0 0 0 0 0 0 -0 -0 -0 0 0 0 0 0 0 0 0 0 0 0 0 0 0 0 0 0 0 0 0 0 0 0 0 0 0
0 0 -0 -0 0 0 0 0 0 0 0 0 0 0 0 -0 -0 0 -0 0 0 0 0 0 0 0 0 0 0 0 0 0 0 0 0 0 0 0 0 0 0 0 0 0
0 0 -0 -0 0 0 0 0 0 0 0 0 0 0 0 0 -0 -0 0 0 0 0 0 0 0 0 0 0 0 0 0 0 0 0 0 0 0 0 0 0 0 0 0 0
0 -0 -0 -0 -0 0 0 0 0 0 0 0 0 0 -0 -0 -0 0 0 0 0 0 0 0 0 0 0 0 0 0 0 0 0 0 0 0 0 0 0 0 0 0 0 0
0 0 -0 -0 -0 0 0 0 0 0 0 0 0 0 -0 0 0 0 0 0 0 0 0 0 0 0 0 0 0 0 0 0 0 0 0 0 0 0 0 0 0 0 0 0
0 0 0 -0 -0 0 0 0 0 0 0 0 0 0 0 0 0 0 0 0 0 0 0 0 0 0 0 0 0 0 0 0 0 0 0 0 0 0 0 0 0 0 0 0
0 0 0 0 -0 -0 0 0 0 0 0 0 0 0 -0 0 0 0 0 0 0 0 0 0 0 0 0 0 0 0 0 0 0 0 0 0 0 0 0 0 0 0 0 0
0 0 0 0 0 0 -0 0 0 0 0 0 0 0 0 0 0 0 0 0 0 0 0 0 0 0 0 0 0 0 0 0 0 0 0 0 0 0 0 -0 0 0 0 0
0 -0 0 0 0 0 -0 -0 -0 0 0 0 0 0 0 0 0 0 0 0 0 0 0 0 0 0 0 0 0 0 0 0 0 0 0 0 0 0 0 0 0 0 0 0
-0 0 0 0 0 0 -0 -0 -0 -0 0 0 0 0 0 0 0 0 0 0 0 0 0 0 0 0 0 0 0 0 0 0 0 0 0 0 0 0 0 0 0 0 0 0
-0 -0 0 0 -0 0 0 -0 -0 -0 -0 -0 0 0 0 0 0 0 0 0 0 0 0 0 0 0 0 0 0 0 0 0 0 0 0 0 0 0 0 0 0 0 0 0
Wind_Speed_500mb
26 34 38 44 46 39 35 33 25 31 43 39 35 19 19 42 50 49 45 73 74 74 55 39 42 56 42 28 32 36 46 57 57 54 53 52 50 46 47 50 51 50 49 47
34 33 27 30 33 34 35 36 37 39 40 24 15 29 31 43 55 52 32 51 85 77 71 44 52 57 28 26 27 34 53 72 64 58 53 52 55 57 58 57 57 55 44 37
11 10 21 15 8 4 5 9 9 15 26 15 27 28 36 56 67 50 34 42 80 77 76 61 44 49 30 33 36 39 52 49 43 48 55 57 60 65 60 65 60 49 44 34
9 10 6 9 7 7 10 19 28 29 28 18 30 48 49 58 26 48 70 74 68 75 78 49 49 38 41 41 50 53 45 47 55 57 60 65 67 68 67 60 54 48 39 39
5 5 13 16 8 4 4 31 23 13 23 40 52 50 39 30 58 70 74 66 55 55 70 31 53 37 40 46 71 49 35 59 64 66 72 80 71 65 62 56 45 43 42 34
4 7 10 9 4 9 12 22 8 23 29 35 44 29 26 56 73 75 69 65 56 53 61 39 25 34 43 44 48 56 57 67 70 75 66 70 71 60 49 50 46 48 36 32
16 11 14 7 3 10 4 15 32 47 43 52 29 34 65 74 69 64 70 69 63 55 38 47 41 13 35 46 61 69 72 78 74 72 72 63 57 50 50 52 54 44 37 29
5 7 13 6 10 8 8 44 48 48 59 54 49 64 72 72 73 75 76 75 68 60 42 54 37 19 38 37 58 88 81 79 74 71 59 51 55 56 53 51 44 38 32 28
11 11 6 8 33 54 54 41 57 56 53 42 60 63 67 70 68 72 73 72 57 40 43 47 15 25 28 58 66 83 77 72 69 57 52 57 63 54 51 44 42 39 33 28
6 6 20 39 57 47 52 51 60 62 48 65 56 60 63 63 62 67 71 69 48 23 28 33 34 22 56 69 81 74 67 60 59 57 57 57 51 51 44 42 40 37 33 27
12 26 34 41 32 47 57 64 51 48 63 59 56 59 64 71 73 73 69 52 35 24 21 22 27 48 73 75 70 70 65 62 61 56 59 56 52 44 37 31 32 33 27 18
13 34 42 37 53 53 56 58 43 57 62 55 53 60 64 68 67 58 50 35 15 13 13 12 24 48 67 61 62 63 61 63 58 58 57 52 49 45 40 31 28 20 14 13
36 49 50 50 45 54 49 52 68 58 48 49 53 52 54 59 48 36 15 17 14 16 5 11 26 45 63 66 66 65 62 61 63 64 60 57 49 47 43 38 33 28 21 19
50 29 31 39 53 58 59 67 52 46 43 41 46 48 53 47 36 25 35 21 20 17 24 12 43 59 64 60 63 53 57 59 58 56 54 51 46 43 42 42 38 35 29 26
27 24 33 42 57 53 60 46 50 48 51 47 41 46 40 37 25 23 28 28 12 26 14 7 37 54 62 63 57 54 53 55 49 48 43 39 39 43 44 43 45 41 40 34
29 30 32 32 49 52 50 46 49 50 48 44 44 45 43 29 24 27 15 10 30 42 27 36 39 59 61 51 50 47 42 40 39 38 38 36 35 46 46 49 46 41 41 38
31 40 40 43 42 48 46 44 47 47 49 46 45 44 42 31 28 31 26 13 30 63 46 44 49 59 50 45 45 43 45 40 38 40 37 38 41 44 49 51 46 42 40 36
21 29 31 41 44 44 47 45 43 42 44 42 41 38 37 34 33 31 26 27 40 42 41 48 51 49 45 42 39 41 45 38 39 39 38 38 42 45 49 50 43 46 45 46
25 36 39 44 42 46 46 46 45 39 38 35 36 35 30 27 27 29 20 29 35 35 36 41 45 43 40 39 36 34 41 37 36 38 38 38 40 41 42 45 50 49 52 51
24 36 38 42 48 46 45 44 38 34 31 27 24 24 22 19 20 21 25 31 30 27 26 38 40 44 35 28 31 35 40 38 38 39 41 42 40 42 41 50 53 54 52 51
26 34 36 38 48 44 40 39 36 33 28 27 29 27 25 20 17 15 19 24 28 25 24 29 38 37 33 31 33 34 47 44 42 40 48 47 50 50 51 55 56 53 50 50
29 28 33 35 42 45 38 37 36 37 36 34 33 32 25 27 22 26 27 22 15 23 25 31 26 24 30 35 37 45 47 44 50 49 49 54 54 61 62 61 60 54 53 49
24 25 26 29 33 36 36 42 39 41 38 37 36 34 40 35 34 30 31 28 22 19 29 57 42 22 19 34 44 46 41 34 48 52 58 58 52 55 60 62 56 50 47 42
24 24 24 24 23 26 36 37 40 39 45 49 49 42 37 39 35 33 28 17 26 25 29 28 30 30 32 40 39 42 46 48 51 51 59 64 60 62 64 59 52 46 43 39
25 25 24 22 21 23 29 31 29 37 38 41 44 44 41 42 39 32 29 26 25 34 32 22 20 25 28 30 32 37 40 42 46 52 57 66 68 69 67 61 53 47 42 43
26 23 20 18 14 22 25 32 30 34 35 37 43 46 44 41 44 42 38 33 25 24 34 29 30 32 30 34 39 40 34 38 42 48 53 56 59 61 63 61 54 48 49 51
26 29 27 12 17 21 20 24 26 28 34 34 35 36 41 45 44 44 42 40 36 33 31 34 31 29 36 38 38 45 50 52 48 52 56 58 60 63 64 63 61 60 61 63
Wind_Direction_500mb
259 269 275 276 277 272 261 253 248 267 264 283 284 291 316 340 341 328 327 336 323 320 330 334 331 331 308 271 259 236 227 217 203 196 195 200 202 196 193 192 182 172 173 169
290 276 263 268 265 258 256 262 264 262 268 269 322 323 335 331 317 311 329 321 316 323 326 336 337 329 298 233 232 228 204 192 192 189 200 196 181 186 174 170 166 163 162 164
258 326 314 278 255 273 320 263 297 283 277 337 323 327 328 318 305 305 321 315 309 320 323 332 328 333 327 202 192 189 194 198 195 195 187 183 179 169 170 165 161 159 164 173
276 355 269 246 208 228 272 288 287 262 285 318 309 311 309 309 315 317 317 314 312 319 324 333 324 311 309 216 187 180 194 209 211 187 172 174 172 166 161 161 162 162 173 180
247 228 290 286 207 208 28 298 289 334 328 310 311 307 302 290 304 308 308 308 307 318 325 313 315 312 251 220 216 205 199 210 201 179 165 160 160 161 160 160 171 177 177 180
282 256 256 248 163 84 322 282 131 321 311 308 307 300 301 310 306 311 313 311 311 315 320 337 302 251 232 215 192 190 208 203 181 159 160 156 156 159 167 167 171 171 177 187
260 260 271 246 92 12 275 300 321 329 319 304 293 285 299 302 297 301 303 311 314 319 317 329 329 264 198 176 184 206 189 183 158 155 153 154 156 161 172 172 170 174 186 189
228 253 280 182 357 227 269 310 308 304 307 292 292 299 296 299 297 301 303 310 315 318 330 323 311 221 177 183 180 182 169 149 149 152 156 161 164 167 165 171 176 179 188 189
204 234 252 274 283 290 293 287 300 302 301 303 303 295 296 298 298 302 306 310 315 325 323 313 272 185 208 242 160 148 143 147 155 159 157 166 167 167 170 178 182 186 188 190
330 260 305 302 290 295 309 313 310 309 308 312 299 299 301 301 301 302 309 310 313 327 297 266 275 267 185 151 146 142 147 151 156 158 161 164 171 172 177 183 188 189 186 188
250 272 303 283 291 313 317 313 308 312 315 308 307 308 306 303 304 305 307 304 304 295 292 322 98 150 154 151 146 148 150 157 160 163 167 163 170 174 181 187 189 188 195 199
289 313 294 288 305 305 321 321 318 324 320 319 318 310 310 310 316 316 307 300 281 263 20 49 119 153 155 156 158 156 157 160 159 161 165 169 179 181 184 186 180 183 188 171
288 287 289 303 325 316 314 328 319 321 327 324 318 319 320 320 323 326 325 126 142 163 196 114 144 160 159 167 165 159 156 159 165 171 175 177 182 184 183 183 182 182 171 166
312 303 314 326 322 328 320 322 327 332 331 331 327 329 331 335 348 15 87 125 134 158 174 153 159 164 160 163 160 159 158 162 170 175 177 180 184 188 187 181 177 163 161 142
318 326 322 325 331 325 328 337 342 342 342 342 338 334 338 347 355 54 94 105 88 163 148 128 164 169 161 164 159 157 161 168 172 174 177 184 190 190 183 172 160 154 146 147
328 337 330 332 339 333 338 342 343 341 342 341 338 349 359 14 54 71 139 98 120 168 187 178 166 171 163 157 153 156 157 162 168 169 171 171 172 170 171 163 156 154 152 156
328 339 344 351 344 338 340 342 339 341 342 344 347 352 11 47 61 67 77 131 95 138 150 149 157 165 162 160 162 158 154 152 151 155 161 163 163 165 163 161 155 158 155 151
335 342 350 359 350 344 348 344 344 345 347 347 353 355 7 26 48 58 71 100 124 125 127 136 150 158 160 162 164 161 155 156 156 159 158 158 161 163 163 163 157 155 144 147
348 358 2 7 1 3 -0 355 352 349 352 354 1 9 4 13 45 69 89 124 124 129 124 131 151 156 161 168 172 175 166 154 156 161 155 151 154 160 163 159 154 152 153 153
353 7 11 11 8 10 10 5 2 7 5 9 15 23 25 18 32 73 83 100 94 111 129 148 159 158 165 172 166 152 153 155 151 150 153 151 153 156 155 152 153 153 158 157
344 5 10 12 14 13 11 19 21 22 19 23 28 26 34 37 41 73 93 96 92 116 140 150 146 153 153 161 169 167 153 150 152 147 153 152 150 150 150 153 154 155 158 164
337 346 4 8 12 17 16 22 36 39 38 41 48 52 54 62 68 73 83 82 81 118 141 142 142 142 159 173 173 165 163 163 163 158 160 157 157 158 162 163 158 159 164 167
327 326 341 357 8 19 27 28 29 36 40 38 39 47 54 57 61 72 81 81 100 109 134 144 156 190 185 168 168 168 168 169 168 164 165 172 172 172 167 161 158 159 162 167
343 323 322 331 351 10 26 33 32 41 48 52 51 52 57 59 62 67 83 85 118 108 105 125 150 165 173 165 161 168 173 177 174 174 170 174 174 171 171 169 166 165 163 168
351 345 324 305 335 4 27 36 38 37 35 38 42 43 50 63 68 69 79 92 114 129 123 123 138 162 170 158 158 158 162 170 173 175 174 172 173 172 172 171 171 170 168 165
20 13 358 358 358 13 28 34 45 46 45 47 53 54 55 59 66 69 75 82 87 104 117 129 139 143 147 152 155 148 158 160 167 167 167 168 170 172 170 168 168 167 165 164
48 41 24 7 356 9 26 37 44 56 53 50 61 50 47 52 58 64 72 74 75 84 90 103 115 134 143 147 156 149 155 154 161 163 162 164 166 165 166 167 167 162 155 153
Wind_Speed_850mb
26 34 38 44 46 39 35 33 25 31 43 39 35 19 19 42 50 49 45 73 74 74 55 39 42 56 42 28 32 36 46 57 57 54 53 52 50 46 47 50 51 50 49 47
34 33 27 30 33 34 35 36 37 39 40 24 15 29 31 43 55 52 32 51 85 77 71 44 52 57 28 26 27 34 53 72 64 58 53 52 55 57 58 57 57 55 44 37
11 10 21 15 8 4 5 9 9 15 26 15 27 28 36 56 67 50 34 42 80 77 76 61 44 49 30 33 36 39 52 49 43 48 55 57 60 65 60 65 60 49 44 34
9 10 6 9 7 7 10 19 28 29 28 18 30 48 49 58 26 48 70 74 68 75 78 49 49 38 41 41 50 53 45 47 55 57 60 65 67 68 67 60 54 48 39 39
5 5 13 16 8 4 4 31 23 13 23 40 52 50 39 30 58 70 74 66 55 55 70 31 53 37 40 46 71 49 35 59 64 66 72 80 71 65 62 56 45 43 42 34
4 7 10 9 4 9 12 22 8 23 29 35 44 29 26 56 73 75 69 65 56 53 61 39 25 34 43 44 48 56 57 67 70 75 66 70 71 60 49 50 46 48 36 32
16 11 14 7 3 10 4 15 32 47 43 52 29 34 65 74 69 64 70 69 63 55 38 47 41 13 35 46 61 69 72 78 74 72 72 63 57 50 50 52 54 44 37 29
5 7 13 6 10 8 8 44 48 48 59 54 49 64 72 72 73 75 76 75 68 60 42 54 37 19 38 37 58 88 81 79 74 71 59 51 55 56 53 51 44 38 32 28
11 11 6 8 33 54 54 41 57 56 53 42 60 63 67 70 68 72 73 72 57 40 43 47 15 25 28 58 66 83 77 72 69 57 52 57 63 54 51 44 42 39 33 28
6 6 20 39 57 47 52 51 60 62 48 65 56 60 63 63 62 67 71 69 48 23 28 33 34 22 56 69 81 74 67 60 59 57 57 57 51 51 44 42 40 37 33 27
12 26 34 41 32 47 57 64 51 48 63 59 56 59 64 71 73 73 69 52 35 24 21 22 27 48 73 75 70 70 65 62 61 56 59 56 52 44 37 31 32 33 27 18
13 34 42 37 53 53 56 58 43 57 62 55 53 60 64 68 67 58 50 35 15 13 13 12 24 48 67 61 62 63 61 63 58 58 57 52 49 45 40 31 28 20 14 13
36 49 50 50 45 54 49 52 68 58 48 49 53 52 54 59 48 36 15 17 14 16 5 11 26 45 63 66 66 65 62 61 63 64 60 57 49 47 43 38 33 28 21 19
50 29 31 39 53 58 59 67 52 46 43 41 46 48 53 47 36 25 35 21 20 17 24 12 43 59 64 60 63 53 57 59 58 56 54 51 46 43 42 42 38 35 29 26
27 24 33 42 57 53 60 46 50 48 51 47 41 46 40 37 25 23 28 28 12 26 14 7 37 54 62 63 57 54 53 55 49 48 43 39 39 43 44 43 45 41 40 34
29 30 32 32 49 52 50 46 49 50 48 44 44 45 43 29 24 27 15 10 30 42 27 36 39 59 61 51 50 47 42 40 39 38 38 36 35 46 46 49 46 41 41 38
31 40 40 43 42 48 46 44 47 47 49 46 45 44 42 31 28 31 26 13 30 63 46 44 49 59 50 45 45 43 45 40 38 40 37 38 41 44 49 51 46 42 40 36
21 29 31 41 44 44 47 45 43 42 44 42 41 38 37 34 33 31 26 27 40 42 41 48 51 49 45 42 39 41 45 38 39 39 38 38 42 45 49 50 43 46 45 46
25 36 39 44 42 46 46 46 45 39 38 35 36 35 30 27 27 29 20 29 35 35 36 41 45 43 40 39 36 34 41 37 36 38 38 38 40 41 42 45 50 49 52 51
24 36 38 42 48 46 45 44 38 34 31 27 24 24 22 19 20 21 25 31 30 27 26 38 40 44 35 28 31 35 40 38 38 39 41 42 40 42 41 50 53 54 52 51
26 34 36 38 48 44 40 39 36 33 28 27 29 27 25 20 17 15 19 24 28 25 24 29 38 37 33 31 33 34 47 44 42 40 48 47 50 50 51 55 56 53 50 50
29 28 33 35 42 45 38 37 36 37 36 34 33 32 25 27 22 26 27 22 15 23 25 31 26 24 30 35 37 45 47 44 50 49 49 54 54 61 62 61 60 54 53 49
24 25 26 29 33 36 36 42 39 41 38 37 36 34 40 35 34 30 31 28 22 19 29 57 42 22 19 34 44 46 41 34 48 52 58 58 52 55 60 62 56 50 47 42
24 24 24 24 23 26 36 37 40 39 45 49 49 42 37 39 35 33 28 17 26 25 29 28 30 30 32 40 39 42 46 48 51 51 59 64 60 62 64 59 52 46 43 39
25 25 24 22 21 23 29 31 29 37 38 41 44 44 41 42 39 32 29 26 25 34 32 22 20 25 28 30 32 37 40 42 46 52 57 66 68 69 67 61 53 47 42 43
26 23 20 18 14 22 25 32 30 34 35 37 43 46 44 41 44 42 38 33 25 24 34 29 30 32 30 34 39 40 34 38 42 48 53 56 59 61 63 61 54 48 49 51
26 29 27 12 17 21 20 24 26 28 34 34 35 36 41 45 44 44 42 40 36 33 31 34 31 29 36 38 38 45 50 52 48 52 56 58 60 63 64 63 61 60 61 63
Wind_Direction_850mb
259 269 275 276 277 272 261 253 248 267 264 283 284 291 316 340 341 328 327 336 323 320 330 334 331 331 308 271 259 236 227 217 203 196 195 200 202 196 193 192 182 172 173 169
290 276 263 268 265 258 256 262 264 262 268 269 322 323 335 331 317 311 329 321 316 323 326 336 337 329 298 233 232 228 204 192 192 189 200 196 181 186 174 170 166 163 162 164
258 326 314 278 255 273 320 263 297 283 277 337 323 327 328 318 305 305 321 315 309 320 323 332 328 333 327 202 192 189 194 198 195 195 187 183 179 169 170 165 161 159 164 173
276 355 269 246 208 228 272 288 287 262 285 318 309 311 309 309 315 317 317 314 312 319 324 333 324 311 309 216 187 180 194 209 211 187 172 174 172 166 161 161 162 162 173 180
247 228 290 286 207 208 28 298 289 334 328 310 311 307 302 290 304 308 308 308 307 318 325 313 315 312 251 220 216 205 199 210 201 179 165 160 160 161 160 160 171 177 177 180
282 256 256 248 163 84 322 282 131 321 311 308 307 300 301 310 306 311 313 311 311 315 320 337 302 251 232 215 192 190 208 203 181 159 160 156 156 159 167 167 171 171 177 187
260 260 271 246 92 12 275 300 321 329 319 304 293 285 299 302 297 301 303 311 314 319 317 329 329 264 198 176 184 206 189 183 158 155 153 154 156 161 172 172 170 174 186 189
228 253 280 182 357 227 269 310 308 304 307 292 292 299 296 299 297 301 303 310 315 318 330 323 311 221 177 183 180 182 169 149 149 152 156 161 164 167 165 171 176 179 188 189
204 234 252 274 283 290 293 287 300 302 301 303 303 295 296 298 298 302 306 310 315 325 323 313 272 185 208 242 160 148 143 147 155 159 157 166 167 167 170 178 182 186 188 190
330 260 305 302 290 295 309 313 310 309 308 312 299 299 301 301 301 302 309 310 313 327 297 266 275 267 185 151 146 142 147 151 156 158 161 164 171 172 177 183 188 189 186 188
250 272 303 283 291 313 317 313 308 312 315 308 307 308 306 303 304 305 307 304 304 295 292 322 98 150 154 151 146 148 150 157 160 163 167 163 170 174 181 187 189 188 195 199
289 313 294 288 305 305 321 321 318 324 320 319 318 310 310 310 316 316 307 300 281 263 20 49 119 153 155 156 158 156 157 160 159 161 165 169 179 181 184 186 180 183 188 171
288 287 289 303 325 316 314 328 319 321 327 324 318 319 320 320 323 326 325 126 142 163 196 114 144 160 159 167 165 159 156 159 165 171 175 177 182 184 183 183 182 182 171 166
312 303 314 326 322 328 320 322 327 332 331 331 327 329 331 335 348 15 87 125 134 158 174 153 159 164 160 163 160 159 158 162 170 175 177 180 184 188 187 181 177 163 161 142
318 326 322 325 331 325 328 337 342 342 342 342 338 334 338 347 355 54 94 105 88 163 148 128 164 169 161 164 159 157 161 168 172 174 177 184 190 190 183 172 160 154 146 147
328 337 330 332 339 333 338 342 343 341 342 341 338 349 359 14 54 71 139 98 120 168 187 178 166 171 163 157 153 156 157 162 168 169 171 171 172 170 171 163 156 154 152 156
328 339 344 351 344 338 340 342 339 341 342 344 347 352 11 47 61 67 77 131 95 138 150 149 157 165 162 160 162 158 154 152 151 155 161 163 163 165 163 161 155 158 155 151
335 342 350 359 350 344 348 344 344 345 347 347 353 355 7 26 48 58 71 100 124 125 127 136 150 158 160 162 164 161 155 156 156 159 158 158 161 163 163 163 157 155 144 147
348 358 2 7 1 3 -0 355 352 349 352 354 1 9 4 13 45 69 89 124 124 129 124 131 151 156 161 168 172 175 166 154 156 161 155 151 154 160 163 159 154 152 153 153
353 7 11 11 8 10 10 5 2 7 5 9 15 23 25 18 32 73 83 100 94 111 129 148 159 158 165 172 166 152 153 155 151 150 153 151 153 156 155 152 153 153 158 157
344 5 10 12 14 13 11 19 21 22 19 23 28 26 34 37 41 73 93 96 92 116 140 150 146 153 153 161 169 167 153 150 152 147 153 152 150 150 150 153 154 155 158 164
337 346 4 8 12 17 16 22 36 39 38 41 48 52 54 62 68 73 83 82 81 118 141 142 142 142 159 173 173 165 163 163 163 158 160 157 157 158 162 163 158 159 164 167
327 326 341 357 8 19 27 28 29 36 40 38 39 47 54 57 61 72 81 81 100 109 134 144 156 190 185 168 168 168 168 169 168 164 165 172 172 172 167 161 158 159 162 167
343 323 322 331 351 10 26 33 32 41 48 52 51 52 57 59 62 67 83 85 118 108 105 125 150 165 173 165 161 168 173 177 174 174 170 174 174 171 171 169 166 165 163 168
351 345 324 305 335 4 27 36 38 37 35 38 42 43 50 63 68 69 79 92 114 129 123 123 138 162 170 158 158 158 162 170 173 175 174 172 173 172 172 171 171 170 168 165
20 13 358 358 358 13 28 34 45 46 45 47 53 54 55 59 66 69 75 82 87 104 117 129 139 143 147 152 155 148 158 160 167 167 167 168 170 172 170 168 168 167 165 164
48 41 24 7 356 9 26 37 44 56 53 50 61 50 47 52 58 64 72 74 75 84 90 103 115 134 143 147 156 149 155 154 161 163 162 164 166 165 166 167 167 162 155 153